Location: Newark
(40.2370°N, 1.4081°W)
Time: 18:37:35
(UTC+00:00)

N. Korean satellite - Pass Details

Date: 25 October 2019
Orbit: 456 x 506 km, 97.2° (Epoch: 21 November)

Event Time Altitude Azimuth Distance (km) Brightness Sun altitude
Rises 05:48:40 0° 15° (NNE) 2,579 10.3 -7.9°
Reaches altitude 10° 05:50:46 10° 18° (NNE) 1,699 9.4 -7.5°
Maximum altitude 05:54:23 63° 100° (E) 564 7.2 -6.9°
Drops below altitude 10° 05:58:02 10° 182° (S) 1,705 9.4 -6.2°
Sets 06:00:08 0° 186° (S) 2,589 10.3 -5.8°
